World > North America > United States > Illinois > Virden

Hourly Virden, IL Regional Weather

Feedback E-mail the Weather

Quick WX

Virden, IL Weather Maps

°F °C°F °C
Virden Weather Map
UTC Time: 8/13/2022, 12:06
Your Time:

Virden, IL Regional Weather

Expires:202208131300;;024776
ASUS43 KLOT 131206
RWRIL 

ILLINOIS REGIONAL WEATHER ROUNDUP
NATIONAL WEATHER SERVICE CHICAGO/ROMEOVILLE IL
700 AM CDT SAT AUG 13 2022

NOTE: "FAIR" INDICATES FEW OR NO CLOUDS BELOW 12,000 FEET WITH NO
SIGNIFICANT WEATHER AND/OR OBSTRUCTIONS TO VISIBILITY.

* THESE STATIONS ARE NOT UNDER NWS QUALITY CONTROL. THEY ALSO MAY NOT
  REPORT WEATHER SUCH AS PRECIPITATION OR FOG.


ILZ028>032-037-038-041>044-048-051>054-059>061-131300-
CENTRAL ILLINOIS
  
CITY           SKY/WX    TMP DP  RH WIND       PRES   REMARKS
PONTIAC        MOCLDY    60  60 100 CALM      30.16R                  
BLOOMINGTON    PTCLDY    60  57  89 S3        30.16S                  
DECATUR        MOCLDY    61  59  93 CALM      30.16S                  
PEORIA         PTCLDY    63  57  81 S7        30.13S                  
6HR MIN TEMP:  62; 6HR MAX TEMP:  68;                                

LACON*         PTCLDY    60  59  97 SE5       30.12F                  
LINCOLN*       PTCLDY    60  60 100 CALM      30.15S                  
SPRINGFIELD    PTCLDY    63  55  75 S6        30.14S                  
6HR MIN TEMP:  61; 6HR MAX TEMP:  66;                                

TAYLORVILLE    PTCLDY    60  58  90 S5        30.15S                  
6HR MIN TEMP:  58; 6HR MAX TEMP:  63;                                

$$


SKY/WX - Weather  TMP - Temperature  DP - Dew Point  RH - Humidity
WIND - Wind Direction/Speed PRES - Barometric Pressure VSB - Visibility
WCI - Wind Chill Index E13G22 Wind - East Wind 13 mph/Gusts of 22 mph

Trending Headlines

Virden Radar Loop



Virden Quick Facts


National Two Day Weather Forecast


E-mail the Virden Weather Forecast

Voice your opinion or tell us about page issues...